Regional Weather Roundup
Issued by NWS

Home | Current Version | Previous Version | Graphics & Text | Print | Product List | Glossary On
Versions: 1 2 3 4 5 6 7 8 9 10 11 12 13 14 15 16 17 18 19 20 21 22 23 24 25 26 27 28
000
ASUS45 KBOI 201610
RWRID

IDAHO REGIONAL WEATHER ROUNDUP
NATIONAL WEATHER SERVICE BOISE ID
900 AM MST TUE FEB 20 2018

NOTE: "FAIR" INDICATES FEW OR NO CLOUDS BELOW 12000 FEET
WITH NO SIGNIFICANT WEATHER AND/OR OBSTRUCTIONS TO VISIBILITY

IDZ012-014-201700-
SOUTHWEST IDAHO


CITY           SKY/WX    TMP DP  RH WIND       PRES   REMARKS
BOISE          SUNNY     13   3  64 CALM      30.17R
CALDWELL       SUNNY     15   4  61 NW3       30.22R
MOUNTAIN HOME  SUNNY     14   3  61 NW12      30.16R WCI   1
$$

IDZ016-017-201700-
SOUTHCENTRAL IDAHO


CITY           SKY/WX    TMP DP  RH WIND       PRES   REMARKS
BURLEY         MOSUNNY    9   0  67 SW15      30.06R WCI  -8
JEROME         SUNNY     12   1  61 SW17      30.07R WCI  -5
TWIN FALLS     SUNNY      5  -1  76 SW12      30.08R WCI -11
$$

IDZ019>023-201700-
SOUTHEAST IDAHO


CITY           SKY/WX    TMP DP  RH WIND       PRES   REMARKS
IDAHO FALLS    PTSUNNY    9   5  84 SW12G21   30.00R WCI  -6
POCATELLO      LGT SNOW  11   6  81 SW24      30.04R VSB 3/4 WCI  -9
REXBURG        CLOUDY     8  -3  61 E3        29.98R
$$

IDZ006-010-011-018-031-032-201700-
CENTRAL IDAHO MOUNTAINS


CITY           SKY/WX    TMP DP  RH WIND       PRES   REMARKS
MCCALL         SUNNY     -9 -11  91 CALM      29.96R
HAILEY         LGT SNOW   9   5  85 E5        29.95R WCI   0
STANLEY          N/A    -12 -18  74 CALM      29.88R
SALMON         PTSUNNY    9   0  67 N8        30.04R WCI  -3
CHALLIS        CLOUDY    11  -1  58 CALM      29.94R
$$

IDZ002-004-006-007-026-201700-
NORTHERN IDAHO


CITY           SKY/WX    TMP DP  RH WIND       PRES   REMARKS
LEWISTON       MOSUNNY   16   7  67 E7        30.26R WCI   6
LOWELL           N/A     19  13  77 CALM      30.29R
COEUR D`ALENE  CLOUDY     2  -2  83 NE5       30.18R WCI  -8
MULLAN PASS    MOSUNNY   -1  -4  87 VRB5      29.84R WCI -11
$$




USA.gov is the U.S. government's official web portal to all federal, state and local government web resources and services.